This is the latest recevied weather packets stored in our database for station/object FW9321. If no packets are shown the sender has not sent any weather packets the latest 10 day(s).
| Time | Temp. | Humidity | Pressure | Rain* | Wind** | Luminosity | Snow |
|---|---|---|---|---|---|---|---|
| 1777603443 | 13.89° C | 42% | 822.4 hPa | 0 mm | - | - | - |
| 1777603323 | 13.89° C | 44% | 822.3 hPa | 0 mm | - | - | - |
| 1777603202 | 13.89° C | 43% | 822.1 hPa | 0 mm | - | - | - |
| 1777603084 | 13.89° C | 43% | 822 hPa | 0 mm | - | - | - |
| 1777602963 | 13.89° C | 43% | 822.2 hPa | 0 mm | - | - | - |
| 1777602843 | 13.89° C | 43% | 822.1 hPa | 0 mm | - | - | - |
| 1777602723 | 13.89° C | 42% | 822.2 hPa | 0 mm | - | - | - |
| 1777602603 | 13.89° C | 41% | 822.2 hPa | 0 mm | - | - | - |
| 1777602603 | 13.89° C | 41% | 822.3 hPa | 0 mm | - | - | - |
| 1777602362 | 15° C | 40% | 822.5 hPa | 0 mm | - | - | - |
| 1777602243 | 13.89° C | 43% | 822.6 hPa | 0 mm | - | - | - |
| 1777602123 | 15° C | 41% | 822.5 hPa | 0 mm | - | - | - |
| 1777601888 | 15° C | 42% | 822.7 hPa | 0 mm | - | - | - |
| 1777601528 | 13.89° C | 42% | 822.6 hPa | 0 mm | - | - | - |
| 1777601403 | 15° C | 41% | 822.7 hPa | 0 mm | - | - | - |
| 1777601284 | 13.89° C | 41% | 822.8 hPa | 0 mm | - | - | - |
| 1777601047 | 13.89° C | 40% | 822.7 hPa | 0 mm | - | - | - |
| 1777600922 | 13.89° C | 39% | 822.9 hPa | 0 mm | - | - | - |
| 1777600802 | 13.89° C | 38% | 822.9 hPa | 0 mm | - | - | - |
| 1777600688 | 13.89° C | 39% | 822.7 hPa | 0 mm | - | - | - |
| 1777600442 | 13.89° C | 38% | 823 hPa | 0 mm | - | - | - |
| 1777600323 | 13.89° C | 38% | 823 hPa | 0 mm | - | - | - |
| 1777600083 | 13.89° C | 38% | 822.8 hPa | 0 mm | - | - | - |
| 1777599964 | 13.89° C | 39% | 822.5 hPa | 0 mm | - | - | - |
| 1777599843 | 13.89° C | 39% | 822.6 hPa | 0 mm | - | - | - |
* Rain latest hour (hover to see other rain measurements)
** Current wind speed in m/s (hover to see current wind gust speed)